RYR3BV LEMH-EIDW

Flight info

Callsign RYR3BV
Flight time 2h 39m
Altitude 36000
Route MEROS DCT LAPIT DCT CHELY DCT LUMAS DCT SOSUR DCT JUSQO DCT DIVKO DCT FJR DCT GAI DCT SECHE DCT UVELI DCT CNA DCT MANAK DCT TIRAV DCT MOKOR DCT BAGAD DCT DOLUR DCT UPCAB DCT IJALA DCT EVRIN DCT SUTEX SUTEX4L
Aircraft B738/M-SDE3FGILRWY/SB1

Departure

Time 2026-04-23 16:33
Airport Menorca Airport (LEMH)

Arrival

Time 2026-04-23 19:12
Airport Dublin Airport (EIDW)
Time Latitude Longitude Altitude Speed Heading
2026-04-23 16:10 39.86464 4.22400 294 ft 0 kts 99°
2026-04-23 16:24 39.86465 4.22395 294 ft 3 kts 99°
2026-04-23 16:24 39.86470 4.22366 297 ft 3 kts 111°
2026-04-23 16:24 39.86480 4.22341 297 ft 3 kts 134°
2026-04-23 16:24 39.86497 4.22326 298 ft 3 kts 176°
2026-04-23 16:25 39.86493 4.22325 298 ft 3 kts 186°
2026-04-23 16:25 39.86473 4.22319 295 ft 1 kts 189°
2026-04-23 16:25 39.86472 4.22319 295 ft 1 kts 189°
2026-04-23 16:28 39.86469 4.22318 295 ft 2 kts 189°
2026-04-23 16:28 39.86433 4.22311 294 ft 8 kts 189°
2026-04-23 16:28 39.86360 4.22295 294 ft 12 kts 189°
2026-04-23 16:29 39.86273 4.22277 297 ft 12 kts 189°
2026-04-23 16:29 39.86192 4.22249 296 ft 12 kts 225°
2026-04-23 16:29 39.86190 4.22144 294 ft 12 kts 275°
2026-04-23 16:29 39.86139 4.22078 298 ft 12 kts 190°
2026-04-23 16:30 39.86056 4.22062 294 ft 14 kts 188°
2026-04-23 16:30 39.85943 4.22039 294 ft 19 kts 189°
2026-04-23 16:30 39.85798 4.22009 296 ft 23 kts 189°
2026-04-23 16:30 39.85622 4.21972 293 ft 28 kts 189°
2026-04-23 16:31 39.85443 4.21936 290 ft 24 kts 189°
2026-04-23 16:31 39.85281 4.21903 283 ft 23 kts 189°
2026-04-23 16:31 39.85160 4.21877 281 ft 13 kts 194°
2026-04-23 16:31 39.85133 4.21786 285 ft 12 kts 281°
2026-04-23 16:32 39.85148 4.21681 284 ft 8 kts 278°
2026-04-23 16:32 39.85179 4.21645 285 ft 6 kts
2026-04-23 16:32 39.85190 4.21647 286 ft 0 kts
2026-04-23 16:32 39.85229 4.21655 288 ft 27 kts
2026-04-23 16:33 39.85648 4.21742 296 ft 93 kts 10°
2026-04-23 16:33 39.86478 4.21912 296 ft 150 kts 11°
2026-04-23 16:33 39.87599 4.22205 636 ft 169 kts 15°
2026-04-23 16:33 39.88779 4.22441 1406 ft 172 kts 12°
2026-04-23 16:34 39.89984 4.22674 2063 ft 182 kts 13°
2026-04-23 16:34 39.91307 4.22939 2420 ft 204 kts 14°
2026-04-23 16:34 39.92785 4.23257 2616 ft 226 kts 13°
2026-04-23 16:34 39.94377 4.23591 2915 ft 243 kts 12°
2026-04-23 16:35 39.96124 4.23964 3276 ft 261 kts 13°
2026-04-23 16:35 39.97913 4.24344 4102 ft 261 kts 12°
2026-04-23 16:35 39.99708 4.24725 4932 ft 263 kts 11°
2026-04-23 16:35 40.01524 4.25110 5704 ft 264 kts 11°
2026-04-23 16:36 40.03344 4.25528 6459 ft 268 kts 10°
2026-04-23 16:36 40.05170 4.25961 7276 ft 266 kts
2026-04-23 16:36 40.06974 4.26392 8088 ft 266 kts
2026-04-23 16:36 40.08801 4.26827 8786 ft 268 kts
2026-04-23 16:37 40.10648 4.27266 9486 ft 271 kts
2026-04-23 16:37 40.12506 4.27707 10232 ft 272 kts
2026-04-23 16:37 40.14412 4.28159 10576 ft 289 kts
2026-04-23 16:37 40.16467 4.28642 10742 ft 310 kts
2026-04-23 16:38 40.18659 4.29160 10932 ft 329 kts
2026-04-23 16:38 40.20944 4.29703 11429 ft 337 kts
2026-04-23 16:38 40.23258 4.30257 12108 ft 339 kts
2026-04-23 16:38 40.25587 4.30814 12793 ft 342 kts
2026-04-23 16:39 40.27939 4.31376 13449 ft 346 kts
2026-04-23 16:39 40.29545 4.31760 13901 ft 349 kts
2026-04-23 16:39 40.31913 4.32325 14537 ft 352 kts
2026-04-23 16:39 40.34330 4.32903 15182 ft 355 kts
2026-04-23 16:40 40.36773 4.33487 15826 ft 358 kts
2026-04-23 16:40 40.39237 4.34077 16467 ft 362 kts
2026-04-23 16:40 40.41724 4.34672 17134 ft 365 kts
2026-04-23 16:40 40.44230 4.35273 17774 ft 368 kts
2026-04-23 16:41 40.46763 4.35880 18391 ft 372 kts
2026-04-23 16:41 40.49320 4.36492 18941 ft 375 kts
2026-04-23 16:41 40.51885 4.37107 19534 ft 376 kts
2026-04-23 16:41 40.54466 4.37723 20134 ft 377 kts
2026-04-23 16:42 40.57050 4.38339 20719 ft 379 kts
2026-04-23 16:42 40.59652 4.38960 21271 ft 381 kts
2026-04-23 16:42 40.62266 4.39585 21813 ft 383 kts
2026-04-23 16:42 40.64894 4.40213 22337 ft 385 kts
2026-04-23 16:43 40.67541 4.40847 22864 ft 387 kts
2026-04-23 16:43 40.70199 4.41485 23393 ft 389 kts
2026-04-23 16:43 40.72870 4.42126 23876 ft 391 kts
2026-04-23 16:43 40.75559 4.42772 24282 ft 394 kts
2026-04-23 16:44 40.78265 4.43422 24675 ft 396 kts
2026-04-23 16:44 40.80983 4.44077 25068 ft 399 kts
2026-04-23 16:44 40.83723 4.44737 25457 ft 402 kts
2026-04-23 16:44 40.86489 4.45403 25741 ft 406 kts
2026-04-23 16:45 40.89284 4.46076 26057 ft 410 kts
2026-04-23 16:45 40.92095 4.46756 26435 ft 412 kts
2026-04-23 16:45 40.94878 4.47431 26809 ft 413 kts
2026-04-23 16:45 40.97749 4.48128 27175 ft 415 kts
2026-04-23 16:46 41.00560 4.48811 27506 ft 417 kts
2026-04-23 16:46 41.03425 4.49507 27834 ft 420 kts
2026-04-23 16:46 41.06306 4.50207 28170 ft 422 kts
2026-04-23 16:46 41.09195 4.50910 28493 ft 423 kts
2026-04-23 16:47 41.12101 4.51616 28830 ft 425 kts
2026-04-23 16:47 41.15018 4.52326 29149 ft 427 kts
2026-04-23 16:47 41.17939 4.53038 29585 ft 426 kts
2026-04-23 16:47 41.20843 4.53748 30091 ft 423 kts
2026-04-23 16:48 41.23731 4.54455 30540 ft 421 kts
2026-04-23 16:48 41.26615 4.55161 30869 ft 421 kts
2026-04-23 16:48 41.29494 4.55865 31207 ft 421 kts
2026-04-23 16:48 41.32373 4.56569 31538 ft 420 kts
2026-04-23 16:49 41.35244 4.57273 31889 ft 419 kts
2026-04-23 16:49 41.38104 4.57975 32329 ft 416 kts
2026-04-23 16:49 41.40945 4.58674 32733 ft 414 kts
2026-04-23 16:49 41.43778 4.59369 33027 ft 414 kts
2026-04-23 16:50 41.46616 4.60066 33294 ft 415 kts
2026-04-23 16:50 41.49452 4.60764 33637 ft 414 kts
2026-04-23 16:50 41.52277 4.61461 34016 ft 412 kts
2026-04-23 16:50 41.55090 4.62155 34321 ft 411 kts
2026-04-23 16:51 41.57905 4.62849 34528 ft 412 kts
2026-04-23 16:51 41.60727 4.63546 34735 ft 413 kts
2026-04-23 16:51 41.63551 4.64244 34986 ft 412 kts
2026-04-23 16:51 41.66368 4.64942 35229 ft 412 kts
2026-04-23 16:52 41.69190 4.65602 35449 ft 410 kts
2026-04-23 16:52 41.71998 4.65412 35642 ft 402 kts 344°
2026-04-23 16:52 41.74633 4.64254 35902 ft 398 kts 333°
2026-04-23 16:52 41.76989 4.62347 36068 ft 397 kts 320°
2026-04-23 16:53 41.79051 4.59953 36196 ft 399 kts 318°
2026-04-23 16:53 41.81103 4.57432 36187 ft 402 kts 317°
2026-04-23 16:53 41.85185 4.52324 36187 ft 400 kts 317°
2026-04-23 16:54 41.89250 4.47273 36197 ft 397 kts 317°
2026-04-23 16:54 41.93306 4.42273 36202 ft 395 kts 318°
2026-04-23 16:55 41.97351 4.37300 36204 ft 394 kts 318°
2026-04-23 16:55 42.01387 4.32336 36204 ft 393 kts 318°
2026-04-23 16:56 42.05418 4.27368 36206 ft 393 kts 318°
2026-04-23 16:56 42.09459 4.22380 36209 ft 395 kts 318°
2026-04-23 16:57 42.13508 4.17372 36197 ft 396 kts 317°
2026-04-23 16:57 42.17571 4.12337 36210 ft 398 kts 317°
2026-04-23 16:58 42.21653 4.07271 36212 ft 400 kts 317°
2026-04-23 16:58 42.25749 4.02176 36210 ft 401 kts 317°
2026-04-23 16:59 42.29859 3.97056 36210 ft 403 kts 317°
2026-04-23 16:59 42.33976 3.91917 36213 ft 403 kts 317°
2026-04-23 17:00 42.38097 3.86763 36211 ft 404 kts 317°
2026-04-23 17:00 42.42213 3.81606 36211 ft 403 kts 317°
2026-04-23 17:01 42.46320 3.76451 36203 ft 402 kts 317°
2026-04-23 17:01 42.50413 3.71303 36209 ft 401 kts 317°
2026-04-23 17:02 42.54496 3.66158 36209 ft 400 kts 317°
2026-04-23 17:02 42.58571 3.61015 36215 ft 400 kts 317°
2026-04-23 17:03 42.62638 3.55870 36211 ft 399 kts 317°
2026-04-23 17:03 42.66698 3.50727 36209 ft 399 kts 317°
2026-04-23 17:04 42.70753 3.45578 36210 ft 399 kts 317°
2026-04-23 17:04 42.74804 3.40426 36212 ft 399 kts 317°
2026-04-23 17:05 42.78854 3.35266 36210 ft 399 kts 317°
2026-04-23 17:05 42.82901 3.30099 36207 ft 399 kts 317°
2026-04-23 17:06 42.86951 3.24920 36205 ft 399 kts 317°
2026-04-23 17:06 42.90975 3.19763 36210 ft 400 kts 317°
2026-04-23 17:07 42.95027 3.14560 36207 ft 400 kts 317°
2026-04-23 17:07 42.99080 3.09347 36207 ft 401 kts 317°
2026-04-23 17:08 43.03133 3.04123 36183 ft 401 kts 316°
2026-04-23 17:08 43.07185 2.98891 36206 ft 401 kts 316°
2026-04-23 17:09 43.11251 2.93641 36209 ft 403 kts 316°
2026-04-23 17:09 43.15323 2.88359 36209 ft 404 kts 316°
2026-04-23 17:10 43.19398 2.83062 36217 ft 404 kts 316°
2026-04-23 17:10 43.23471 2.77761 36203 ft 404 kts 316°
2026-04-23 17:11 43.27539 2.72457 36189 ft 403 kts 316°
2026-04-23 17:11 43.31602 2.67150 36168 ft 403 kts 316°
2026-04-23 17:12 43.35657 2.61843 36178 ft 402 kts 316°
2026-04-23 17:12 43.39706 2.56533 36169 ft 402 kts 316°
2026-04-23 17:13 43.43755 2.51213 36170 ft 402 kts 316°
2026-04-23 17:13 43.47793 2.45897 36155 ft 402 kts 316°
2026-04-23 17:14 43.51825 2.40578 36168 ft 401 kts 316°
2026-04-23 17:14 43.55848 2.35261 36148 ft 401 kts 316°
2026-04-23 17:15 43.59863 2.29945 36167 ft 400 kts 316°
2026-04-23 17:15 43.63849 2.24657 36149 ft 400 kts 316°
2026-04-23 17:16 43.67866 2.19316 36148 ft 402 kts 316°
2026-04-23 17:16 43.71896 2.13948 36144 ft 403 kts 316°
2026-04-23 17:17 43.75942 2.08548 36152 ft 405 kts 316°
2026-04-23 17:17 43.80004 2.03116 36144 ft 407 kts 316°
2026-04-23 17:18 43.86117 1.94920 36144 ft 409 kts 316°
2026-04-23 17:19 43.90204 1.89428 36130 ft 409 kts 315°
2026-04-23 17:19 43.94260 1.83893 36152 ft 409 kts 311°
2026-04-23 17:20 43.97416 1.77351 36155 ft 409 kts 298°
2026-04-23 17:21 44.02648 1.63280 36142 ft 410 kts 298°
2026-04-23 17:21 44.06598 1.52729 36117 ft 410 kts 298°
2026-04-23 17:22 44.10545 1.42182 36125 ft 409 kts 298°
2026-04-23 17:23 44.14480 1.31632 36119 ft 409 kts 298°
2026-04-23 17:24 44.18385 1.21118 36116 ft 409 kts 298°
2026-04-23 17:24 44.22296 1.10549 36111 ft 409 kts 298°
2026-04-23 17:25 44.26199 0.99961 36103 ft 409 kts 298°
2026-04-23 17:26 44.31393 0.85807 36097 ft 410 kts 297°
2026-04-23 17:27 44.35287 0.75148 36069 ft 411 kts 297°
2026-04-23 17:27 44.37879 0.68028 36086 ft 411 kts 297°
2026-04-23 17:28 44.40034 0.62100 36083 ft 412 kts 297°
2026-04-23 17:28 44.42744 0.55044 36065 ft 412 kts 307°
2026-04-23 17:29 44.46888 0.49550 36066 ft 414 kts 326°
2026-04-23 17:30 44.54671 0.44250 36074 ft 416 kts 333°
2026-04-23 17:30 44.62545 0.39115 36081 ft 416 kts 333°
2026-04-23 17:31 44.67784 0.35634 36066 ft 417 kts 333°
2026-04-23 17:31 44.73021 0.32134 36074 ft 417 kts 333°
2026-04-23 17:32 44.78263 0.28624 36072 ft 417 kts 333°
2026-04-23 17:32 44.83506 0.25107 36072 ft 418 kts 332°
2026-04-23 17:33 44.88750 0.21583 36069 ft 418 kts 332°
2026-04-23 17:33 44.93996 0.18049 36069 ft 418 kts 332°
2026-04-23 17:34 44.99239 0.14511 36065 ft 418 kts 332°
2026-04-23 17:35 45.07106 0.09190 36065 ft 418 kts 332°
2026-04-23 17:35 45.14961 0.03859 36063 ft 417 kts 332°
2026-04-23 17:36 45.20191 0.00300 36072 ft 417 kts 333°
2026-04-23 17:36 45.25419 -0.03265 36057 ft 417 kts 332°
2026-04-23 17:37 45.30641 -0.06833 36068 ft 417 kts 332°
2026-04-23 17:38 45.38478 -0.12203 36074 ft 417 kts 332°
2026-04-23 17:38 45.43705 -0.15793 36071 ft 417 kts 332°
2026-04-23 17:39 45.48936 -0.19394 36068 ft 418 kts 332°
2026-04-23 17:39 45.54133 -0.22980 36078 ft 418 kts 332°
2026-04-23 17:40 45.59368 -0.26598 36087 ft 418 kts 332°
2026-04-23 17:40 45.64607 -0.30231 36073 ft 418 kts 331°
2026-04-23 17:41 45.69395 -0.34869 36086 ft 416 kts 320°
2026-04-23 17:41 45.76172 -0.42625 36072 ft 416 kts 320°
2026-04-23 17:42 45.82978 -0.50359 36075 ft 416 kts 320°
2026-04-23 17:43 45.87520 -0.55509 36080 ft 416 kts 320°
2026-04-23 17:43 45.92059 -0.60665 36083 ft 416 kts 320°
2026-04-23 17:44 45.96595 -0.65828 36084 ft 416 kts 320°
2026-04-23 17:44 46.03392 -0.73587 36087 ft 416 kts 320°
2026-04-23 17:45 46.10180 -0.81362 36078 ft 416 kts 320°
2026-04-23 17:46 46.16963 -0.89157 36106 ft 416 kts 320°
2026-04-23 17:46 46.21485 -0.94366 36086 ft 416 kts 320°
2026-04-23 17:47 46.26007 -0.99586 36083 ft 416 kts 320°
2026-04-23 17:48 46.32795 -1.07445 36083 ft 417 kts 320°
2026-04-23 17:48 46.37318 -1.12697 36095 ft 417 kts 320°
2026-04-23 17:49 46.41844 -1.17965 36111 ft 418 kts 320°
2026-04-23 17:49 46.46342 -1.23210 36106 ft 418 kts 320°
2026-04-23 17:50 46.50870 -1.28503 36125 ft 418 kts 320°
2026-04-23 17:50 46.57667 -1.36470 36132 ft 419 kts 320°
2026-04-23 17:51 46.62037 -1.42066 36136 ft 418 kts 313°
2026-04-23 17:52 46.68040 -1.51302 36132 ft 419 kts 312°
2026-04-23 17:52 46.74060 -1.60549 36125 ft 419 kts 313°
2026-04-23 17:53 46.80110 -1.69773 36115 ft 420 kts 313°
2026-04-23 17:54 46.84143 -1.75935 36108 ft 420 kts 313°
2026-04-23 17:54 46.90186 -1.85199 36103 ft 420 kts 313°
2026-04-23 17:55 46.96223 -1.94487 36105 ft 420 kts 313°
2026-04-23 17:56 47.00247 -2.00693 36103 ft 420 kts 313°
2026-04-23 17:56 47.06379 -2.09869 36103 ft 420 kts 313°
2026-04-23 17:57 47.10467 -2.15905 36104 ft 420 kts 313°
2026-04-23 17:58 47.16625 -2.25065 36131 ft 420 kts 313°
2026-04-23 17:58 47.20727 -2.31197 36126 ft 421 kts 313°
2026-04-23 17:59 47.24829 -2.37344 36126 ft 421 kts 313°
2026-04-23 17:59 47.28927 -2.43502 36125 ft 421 kts 313°
2026-04-23 18:00 47.32362 -2.48673 36118 ft 421 kts 313°
2026-04-23 18:00 47.37126 -2.55862 36122 ft 422 kts 313°
2026-04-23 18:01 47.41225 -2.62063 36120 ft 422 kts 313°
2026-04-23 18:01 47.45328 -2.68286 36120 ft 423 kts 313°
2026-04-23 18:02 47.48740 -2.73471 36123 ft 423 kts 313°
2026-04-23 18:02 47.53540 -2.80785 36128 ft 424 kts 313°
2026-04-23 18:03 47.57651 -2.87056 36118 ft 425 kts 314°
2026-04-23 18:03 47.62224 -2.92605 36124 ft 426 kts 322°
2026-04-23 18:04 47.67034 -2.97755 36119 ft 427 kts 322°
2026-04-23 18:04 47.71841 -3.02930 36126 ft 427 kts 322°
2026-04-23 18:05 47.76630 -3.08159 36132 ft 427 kts 322°
2026-04-23 18:05 47.81409 -3.13420 36123 ft 428 kts 321°
2026-04-23 18:06 47.86185 -3.18697 36132 ft 427 kts 322°
2026-04-23 18:06 47.90957 -3.23983 36124 ft 427 kts 322°
2026-04-23 18:07 47.95721 -3.29271 36134 ft 427 kts 322°
2026-04-23 18:07 48.00444 -3.34525 36135 ft 426 kts 321°
2026-04-23 18:08 48.04420 -3.38959 36138 ft 425 kts 321°
2026-04-23 18:08 48.09929 -3.45115 36140 ft 425 kts 321°
2026-04-23 18:09 48.14667 -3.50423 36138 ft 425 kts 321°
2026-04-23 18:09 48.19406 -3.55746 36145 ft 426 kts 321°
2026-04-23 18:10 48.24179 -3.61120 36134 ft 427 kts 321°
2026-04-23 18:10 48.28894 -3.66439 36140 ft 427 kts 321°
2026-04-23 18:11 48.33642 -3.71809 36140 ft 428 kts 321°
2026-04-23 18:11 48.38393 -3.77196 36146 ft 428 kts 321°
2026-04-23 18:12 48.43146 -3.82598 36144 ft 428 kts 321°
2026-04-23 18:12 48.47897 -3.88012 36147 ft 428 kts 321°
2026-04-23 18:13 48.52653 -3.93440 36154 ft 429 kts 321°
2026-04-23 18:13 48.57407 -3.98883 36161 ft 429 kts 321°
2026-04-23 18:14 48.61359 -4.03420 36165 ft 429 kts 320°
2026-04-23 18:14 48.66916 -4.09808 36156 ft 429 kts 321°
2026-04-23 18:15 48.71669 -4.15289 36161 ft 429 kts 320°
2026-04-23 18:15 48.75616 -4.19850 36159 ft 429 kts 320°
2026-04-23 18:16 48.80355 -4.25339 36154 ft 429 kts 320°
2026-04-23 18:16 48.85091 -4.30842 36164 ft 429 kts 320°
2026-04-23 18:17 48.92186 -4.39107 36164 ft 428 kts 321°
2026-04-23 18:17 48.96917 -4.44635 36163 ft 429 kts 320°
2026-04-23 18:18 49.01653 -4.50181 36180 ft 430 kts 321°
2026-04-23 18:18 49.06399 -4.55749 36183 ft 431 kts 319°
2026-04-23 18:19 49.11157 -4.61348 36175 ft 433 kts 320°
2026-04-23 18:19 49.15923 -4.66974 36181 ft 433 kts 320°
2026-04-23 18:20 49.20696 -4.72620 36180 ft 434 kts 320°
2026-04-23 18:20 49.25474 -4.78284 36190 ft 435 kts 320°
2026-04-23 18:21 49.30247 -4.83959 36180 ft 435 kts 321°
2026-04-23 18:21 49.35019 -4.89647 36195 ft 434 kts 320°
2026-04-23 18:22 49.39785 -4.95342 36191 ft 434 kts 320°
2026-04-23 18:22 49.44509 -5.00998 36194 ft 433 kts 320°
2026-04-23 18:23 49.51904 -5.08988 36209 ft 434 kts 328°
2026-04-23 18:24 49.59850 -5.15690 36200 ft 434 kts 330°
2026-04-23 18:25 49.67766 -5.22450 36208 ft 433 kts 329°
2026-04-23 18:25 49.73014 -5.27015 36205 ft 433 kts 328°
2026-04-23 18:26 49.78256 -5.31597 36215 ft 433 kts 328°
2026-04-23 18:26 49.83496 -5.36185 36207 ft 433 kts 329°
2026-04-23 18:27 49.88732 -5.40786 36222 ft 433 kts 328°
2026-04-23 18:27 49.93969 -5.45390 36214 ft 433 kts 328°
2026-04-23 18:28 49.99223 -5.50026 36222 ft 437 kts 328°
2026-04-23 18:28 50.04535 -5.54726 36223 ft 441 kts 329°
2026-04-23 18:29 50.09878 -5.59467 36218 ft 443 kts 329°
2026-04-23 18:29 50.15241 -5.64236 36214 ft 444 kts 329°
2026-04-23 18:30 50.20605 -5.69015 36210 ft 444 kts 328°
2026-04-23 18:30 50.25957 -5.73796 36207 ft 442 kts 328°
2026-04-23 18:31 50.31288 -5.78568 36219 ft 440 kts 329°
2026-04-23 18:31 50.36588 -5.83330 36217 ft 438 kts 328°
2026-04-23 18:32 50.41866 -5.88076 36225 ft 436 kts 329°
2026-04-23 18:32 50.47115 -5.92818 36229 ft 435 kts 329°
2026-04-23 18:33 50.52309 -5.97521 36229 ft 433 kts 328°
2026-04-23 18:33 50.57527 -6.02257 36230 ft 433 kts 328°
2026-04-23 18:34 50.62737 -6.06997 36227 ft 434 kts 327°
2026-04-23 18:34 50.68011 -6.11806 36249 ft 442 kts 329°
2026-04-23 18:35 50.73364 -6.16706 36247 ft 447 kts 328°
2026-04-23 18:35 50.78752 -6.21648 36236 ft 446 kts 329°
2026-04-23 18:36 50.84075 -6.26542 36230 ft 439 kts 328°
2026-04-23 18:36 50.89449 -6.31180 36235 ft 442 kts 337°
2026-04-23 18:37 50.95400 -6.33616 36254 ft 444 kts 348°
2026-04-23 18:37 51.01498 -6.35283 36255 ft 445 kts 349°
2026-04-23 18:38 51.07609 -6.37007 36257 ft 446 kts 349°
2026-04-23 18:38 51.13718 -6.38803 36243 ft 447 kts 348°
2026-04-23 18:39 51.19787 -6.40614 35930 ft 439 kts 348°
2026-04-23 18:39 51.22761 -6.41500 35627 ft 432 kts 348°
2026-04-23 18:39 51.25705 -6.42378 35246 ft 428 kts 348°
2026-04-23 18:39 51.28621 -6.43248 34888 ft 425 kts 348°
2026-04-23 18:40 51.31524 -6.44055 34517 ft 422 kts 350°
2026-04-23 18:40 51.34411 -6.44808 34136 ft 419 kts 349°
2026-04-23 18:40 51.37279 -6.45541 33720 ft 416 kts 350°
2026-04-23 18:40 51.40125 -6.46268 33331 ft 412 kts 349°
2026-04-23 18:41 51.42944 -6.46995 32973 ft 409 kts 350°
2026-04-23 18:41 51.45740 -6.47719 32607 ft 406 kts 349°
2026-04-23 18:41 51.48515 -6.48445 32247 ft 402 kts 350°
2026-04-23 18:41 51.51231 -6.49160 31897 ft 400 kts 350°
2026-04-23 18:42 51.53967 -6.49882 31547 ft 397 kts 349°
2026-04-23 18:42 51.56681 -6.50600 31202 ft 394 kts 350°
2026-04-23 18:42 51.59378 -6.51315 30857 ft 392 kts 350°
2026-04-23 18:42 51.62060 -6.52026 30512 ft 390 kts 349°
2026-04-23 18:43 51.64727 -6.52732 30152 ft 387 kts 350°
2026-04-23 18:43 51.67373 -6.53433 29757 ft 384 kts 350°
2026-04-23 18:43 51.69998 -6.54130 29388 ft 380 kts 350°
2026-04-23 18:43 51.72597 -6.54820 29043 ft 377 kts 350°
2026-04-23 18:44 51.75176 -6.55506 28682 ft 374 kts 350°
2026-04-23 18:44 51.77733 -6.56188 28330 ft 371 kts 350°
2026-04-23 18:44 51.80262 -6.56921 27977 ft 368 kts 348°
2026-04-23 18:44 51.82762 -6.57764 27636 ft 366 kts 347°
2026-04-23 18:45 51.85237 -6.58641 27294 ft 363 kts 347°
2026-04-23 18:45 51.87699 -6.59520 26952 ft 361 kts 347°
2026-04-23 18:45 51.90145 -6.60390 26619 ft 359 kts 347°
2026-04-23 18:45 51.92580 -6.61249 26279 ft 357 kts 347°
2026-04-23 18:46 51.95005 -6.62099 25943 ft 356 kts 348°
2026-04-23 18:46 51.97419 -6.62942 25613 ft 354 kts 348°
2026-04-23 18:46 51.99822 -6.63779 25281 ft 353 kts 348°
2026-04-23 18:46 52.02218 -6.64614 24949 ft 352 kts 348°
2026-04-23 18:47 52.04608 -6.65446 24628 ft 351 kts 348°
2026-04-23 18:47 52.06990 -6.66277 24294 ft 350 kts 348°
2026-04-23 18:47 52.09369 -6.67106 23956 ft 349 kts 348°
2026-04-23 18:47 52.11711 -6.67924 23593 ft 349 kts 348°
2026-04-23 18:48 52.14076 -6.68751 23237 ft 347 kts 348°
2026-04-23 18:48 52.16441 -6.69578 22711 ft 350 kts 348°
2026-04-23 18:48 52.18833 -6.70415 22228 ft 352 kts 348°
2026-04-23 18:48 52.21225 -6.71254 21875 ft 351 kts 348°
2026-04-23 18:49 52.23603 -6.72089 21552 ft 348 kts 348°
2026-04-23 18:49 52.25972 -6.72921 21153 ft 348 kts 349°
2026-04-23 18:49 52.28340 -6.73754 20828 ft 346 kts 349°
2026-04-23 18:49 52.30682 -6.74579 20555 ft 343 kts 348°
2026-04-23 18:50 52.32226 -6.75124 20322 ft 342 kts 348°
2026-04-23 18:50 52.35349 -6.76225 19774 ft 345 kts 348°
2026-04-23 18:50 52.37685 -6.77050 19496 ft 342 kts 348°
2026-04-23 18:50 52.39998 -6.77869 19213 ft 339 kts 348°
2026-04-23 18:51 52.42304 -6.78685 18877 ft 339 kts 348°
2026-04-23 18:51 52.44608 -6.79501 18555 ft 338 kts 348°
2026-04-23 18:51 52.46900 -6.80315 18221 ft 336 kts 348°
2026-04-23 18:51 52.49181 -6.81125 17865 ft 335 kts 348°
2026-04-23 18:52 52.51459 -6.81934 17510 ft 334 kts 348°
2026-04-23 18:52 52.53730 -6.82743 17156 ft 334 kts 348°
2026-04-23 18:52 52.56001 -6.83552 16713 ft 336 kts 348°
2026-04-23 18:52 52.58290 -6.84368 16342 ft 336 kts 348°
2026-04-23 18:53 52.60571 -6.85183 16014 ft 335 kts 348°
2026-04-23 18:53 52.62843 -6.85995 15694 ft 334 kts 348°
2026-04-23 18:53 52.65107 -6.86805 15368 ft 332 kts 347°
2026-04-23 18:53 52.67362 -6.87613 15056 ft 331 kts 347°
2026-04-23 18:54 52.69611 -6.88419 14739 ft 330 kts 347°
2026-04-23 18:54 52.71853 -6.89224 14426 ft 329 kts 347°
2026-04-23 18:54 52.74059 -6.90017 14114 ft 329 kts 347°
2026-04-23 18:54 52.76293 -6.90821 13760 ft 328 kts 347°
2026-04-23 18:55 52.78522 -6.91623 13427 ft 327 kts 347°
2026-04-23 18:55 52.80753 -6.92266 13086 ft 326 kts 359°
2026-04-23 18:55 52.82950 -6.91577 12772 ft 321 kts 25°
2026-04-23 18:55 52.84803 -6.89637 12485 ft 314 kts 44°
2026-04-23 18:56 52.85878 -6.88056 12299 ft 311 kts 45°
2026-04-23 18:56 52.87994 -6.84805 11892 ft 309 kts 46°
2026-04-23 18:56 52.89565 -6.82381 11597 ft 308 kts 46°
2026-04-23 18:56 52.91134 -6.79975 11307 ft 307 kts 46°
2026-04-23 18:57 52.92702 -6.77588 10998 ft 305 kts 46°
2026-04-23 18:57 52.94268 -6.75214 10718 ft 305 kts 46°
2026-04-23 18:57 52.95829 -6.72850 10465 ft 302 kts 46°
2026-04-23 18:57 52.97362 -6.70531 10308 ft 296 kts 46°
2026-04-23 18:58 52.98978 -6.68414 9981 ft 300 kts 29°
2026-04-23 18:58 53.00999 -6.67590 9676 ft 303 kts 359°
2026-04-23 18:58 53.03039 -6.68325 9395 ft 300 kts 335°
2026-04-23 18:58 53.04908 -6.69840 9113 ft 298 kts 331°
2026-04-23 18:59 53.06744 -6.71438 8821 ft 298 kts 330°
2026-04-23 18:59 53.08573 -6.73037 8531 ft 296 kts 331°
2026-04-23 18:59 53.10396 -6.74615 8247 ft 295 kts 331°
2026-04-23 18:59 53.12215 -6.76176 7982 ft 293 kts 332°
2026-04-23 19:00 53.14027 -6.77720 7734 ft 291 kts 332°
2026-04-23 19:00 53.15808 -6.79235 7615 ft 284 kts 332°
2026-04-23 19:00 53.17537 -6.80737 7485 ft 278 kts 332°
2026-04-23 19:00 53.19232 -6.82224 7374 ft 272 kts 331°
2026-04-23 19:01 53.20875 -6.83672 7331 ft 263 kts 331°
2026-04-23 19:01 53.22478 -6.85086 7273 ft 260 kts 331°
2026-04-23 19:01 53.24080 -6.86503 6974 ft 262 kts 331°
2026-04-23 19:01 53.25673 -6.87922 6700 ft 263 kts 332°
2026-04-23 19:02 53.26761 -6.88900 6544 ft 262 kts 331°
2026-04-23 19:02 53.28879 -6.90812 6233 ft 261 kts 331°
2026-04-23 19:02 53.30476 -6.92251 5996 ft 260 kts 331°
2026-04-23 19:02 53.32056 -6.93674 5773 ft 255 kts 331°
2026-04-23 19:03 53.33621 -6.95077 5382 ft 256 kts 331°
2026-04-23 19:03 53.35289 -6.96069 4976 ft 256 kts 356°
2026-04-23 19:03 53.36997 -6.95607 4676 ft 246 kts 30°
2026-04-23 19:03 53.38273 -6.93860 4490 ft 235 kts 55°
2026-04-23 19:04 53.39275 -6.91700 4291 ft 235 kts 58°
2026-04-23 19:04 53.40259 -6.89496 4096 ft 235 kts 58°
2026-04-23 19:04 53.41221 -6.87336 3901 ft 228 kts 58°
2026-04-23 19:04 53.42162 -6.85220 3716 ft 224 kts 58°
2026-04-23 19:05 53.43091 -6.83134 3519 ft 222 kts 58°
2026-04-23 19:05 53.44017 -6.81056 3320 ft 222 kts 58°
2026-04-23 19:05 53.44936 -6.78988 3123 ft 220 kts 58°
2026-04-23 19:05 53.45835 -6.76921 2999 ft 219 kts 63°
2026-04-23 19:06 53.46190 -6.75392 2967 ft 208 kts 88°
2026-04-23 19:06 53.46166 -6.73003 2982 ft 206 kts 96°
2026-04-23 19:06 53.46113 -6.70599 2966 ft 205 kts 96°
2026-04-23 19:06 53.46015 -6.68234 2963 ft 202 kts 98°
2026-04-23 19:07 53.45891 -6.65906 2964 ft 197 kts 98°
2026-04-23 19:07 53.45764 -6.63667 2933 ft 188 kts 98°
2026-04-23 19:07 53.45643 -6.61517 2960 ft 184 kts 99°
2026-04-23 19:07 53.45516 -6.59367 2999 ft 186 kts 99°
2026-04-23 19:08 53.45383 -6.57213 2935 ft 182 kts 99°
2026-04-23 19:08 53.45265 -6.55181 2951 ft 169 kts 99°
2026-04-23 19:08 53.45150 -6.53264 2977 ft 166 kts 100°
2026-04-23 19:08 53.45034 -6.51333 2913 ft 166 kts 100°
2026-04-23 19:09 53.44928 -6.49413 2703 ft 165 kts 100°
2026-04-23 19:09 53.44821 -6.47541 2541 ft 156 kts 99°
2026-04-23 19:09 53.44716 -6.45744 2340 ft 153 kts 99°
2026-04-23 19:09 53.44615 -6.43973 2037 ft 151 kts 99°
2026-04-23 19:10 53.44522 -6.42286 1869 ft 141 kts 99°
2026-04-23 19:10 53.44430 -6.40694 1740 ft 137 kts 99°
2026-04-23 19:10 53.44336 -6.39094 1552 ft 139 kts 98°
2026-04-23 19:10 53.44244 -6.37471 1360 ft 140 kts 97°
2026-04-23 19:11 53.44154 -6.35832 1154 ft 142 kts 97°
2026-04-23 19:11 53.44059 -6.34185 962 ft 142 kts 96°
2026-04-23 19:11 53.43962 -6.32526 782 ft 142 kts 95°
2026-04-23 19:11 53.43874 -6.30870 559 ft 142 kts 95°
2026-04-23 19:12 53.43783 -6.29243 380 ft 142 kts 94°
2026-04-23 19:12 53.43691 -6.27595 215 ft 136 kts 95°
2026-04-23 19:12 53.43621 -6.26330 211 ft 80 kts 95°
2026-04-23 19:12 53.43591 -6.25760 208 ft 17 kts 94°
2026-04-23 19:13 53.43581 -6.25607 208 ft 14 kts 96°
2026-04-23 19:13 53.43569 -6.25444 212 ft 15 kts 102°
2026-04-23 19:13 53.43535 -6.25253 209 ft 19 kts 111°
2026-04-23 19:13 53.43470 -6.25061 211 ft 19 kts 121°
2026-04-23 19:14 53.43392 -6.25006 217 ft 13 kts 220°
2026-04-23 19:14 53.43384 -6.25151 213 ft 13 kts 273°
2026-04-23 19:14 53.43392 -6.25296 216 ft 12 kts 278°
2026-04-23 19:14 53.43400 -6.25428 215 ft 10 kts 275°
2026-04-23 19:15 53.43404 -6.25512 210 ft 2 kts 275°
2026-04-23 19:15 53.43406 -6.25552 210 ft 5 kts 274°
2026-04-23 19:15 53.43389 -6.25641 211 ft 11 kts 216°
2026-04-23 19:15 53.43315 -6.25622 210 ft 11 kts 155°
2026-04-23 19:16 53.43244 -6.25569 212 ft 11 kts 156°
2026-04-23 19:16 53.43188 -6.25494 212 ft 11 kts 102°
2026-04-23 19:16 53.43210 -6.25379 215 ft 10 kts 66°
2026-04-23 19:17 53.43225 -6.25151 210 ft 10 kts 95°
2026-04-23 19:17 53.43219 -6.25039 210 ft 10 kts 94°
2026-04-23 19:17 53.43213 -6.24929 218 ft 9 kts 95°
2026-04-23 19:17 53.43207 -6.24823 210 ft 9 kts 96°
2026-04-23 19:18 53.43200 -6.24724 218 ft 8 kts 104°
2026-04-23 19:18 53.43156 -6.24689 215 ft 8 kts 184°
2026-04-23 19:18 53.43109 -6.24696 210 ft 4 kts 185°
2026-04-23 19:18 53.43095 -6.24699 210 ft 0 kts 185°